Tracking 25711 objects as of 22-May-2022
HD Live streaming from Space Station
objects crossing your sky now

FLOCK 4X 7

Track FLOCK 4X 7 now!
10-day predictions


NORAD ID: 51065
Int'l Code: 2022-002CK
Perigee: 521.7 km
Apogee: 536.2 km
Inclination: 97.5 °
Period: 95.1 minutes
Semi major axis: 6899 km
RCS: Unknown
Launch date: January 13, 2022
Source: United States (US)
Launch site: AIR FORCE EASTERN TEST RANGE (AFETR)
aabbcc
Your satellite tracking list
Your tracking list is empty




NASA's NSSDC Master Catalog

Two Line Element Set (TLE):
1 51065U 22002CK  22142.16676554  .00021410  00000-0  11551-2 0  9997
2 51065  97.4876 209.7369 0010531 153.6192 206.5578 15.14726965 19440
Source of the keplerian elements: AFSPC